Location: Agus-us
(14.2247°N, 120.8593°E)
Time: 18:42:43
(UTC+00:00)

Cosmos 44 - Pass Details

Date: 13 December 2025
Orbit: 572 x 779 km, 65.1° (Epoch: 20 January)

Event Time Altitude Azimuth Distance (km) Brightness Sun altitude
Rises 20:52:17 0° 198° (SSW) 2,778 6.4 -18.8°
Reaches altitude 10° 20:54:28 10° 197° (SSW) 1,895 5.6 -18.3°
Maximum altitude 20:58:42 74° 112° (ESE) 626 3.2 -17.4°
Drops below altitude 10° 21:03:10 10° 27° (NNE) 1,989 5.7 -16.4°
Sets 21:05:30 0° 26° (NNE) 2,930 6.6 -15.8°
